Regional Weather Roundup
Issued by NWS

Home | Current Version | Previous Version | Graphics & Text | Print | Product List | Glossary On
Versions: 1 2 3 4 5 6 7 8 9 10 11 12 13 14 15 16 17 18 19 20 21 22 23 24 25 26 27
000
ASUS45 KBOU 221107
RWRCO

WEATHER ROUNDUP FOR COLORADO
NATIONAL WEATHER SERVICE DENVER/BOULDER CO
500 AM MDT SUN OCT 22 2017

NOTE: "FAIR" INDICATES FEW OR NO CLOUDS BELOW 12000 FEET WITH NO
SIGNIFICANT WEATHER AND/OR OBSTRUCTIONS TO VISIBILITY.

COZ001>005-013-030-031-221200-
...NORTHWEST COLORADO...

CITY           SKY/WX    TMP DP  RH WIND       PRES   REMARKS
CRAIG          CLOUDY    28  23  81 CALM      30.37R
HAYDEN         CLOUDY    32  25  75 E8        30.37F WCI  25
MEEKER         FAIR      28  22  78 E6        30.38S WCI  22
RABBIT EARS PA PTSUNNY   19  18  93 W12G22    30.33S WCI   7
STEAMBOAT SPGS CLOUDY    29  24  82 CALM      30.36S
WALDEN         NOT AVBL
$$

COZ006>008-011-221200-
...WEST CENTRAL VALLEYS...

CITY           SKY/WX    TMP DP  RH WIND       PRES   REMARKS
GRAND JUNCTION FAIR      36  16  44 SE9       30.38F
MONTROSE       FAIR      29  16  58 SE6       30.43F WCI  23
EAGLE          FAIR      23  18  81 CALM      30.44S
RIFLE          FAIR      29  23  78 CALM      30.42S
DELTA          FAIR      32  12  44 NE5       30.42F WCI  27
NUCLA          FAIR      30  10  43 E5        30.44F WCI  25
$$

COZ017>023-064>068-221200-
...SOUTHWEST COLORADO...

CITY           SKY/WX    TMP DP  RH WIND       PRES   REMARKS
DURANGO        FAIR      26  10  50 N6        30.37R WCI  19
CORTEZ         FAIR      26  11  52 E9        30.39S WCI  17
PAGOSA SPRINGS FAIR      24   6  45 CALM      30.38S
TELLURIDE      FAIR      28  15  58 SE6       30.48R WCI  22
WOLF CREEK PAS FAIR      28  10  47 W6        30.50R WCI  22
$$

COZ009-010-012-014-032>034-037-058>063-221200-
...CENTRAL COLORADO...

CITY           SKY/WX    TMP DP  RH WIND       PRES   REMARKS
ASPEN          FAIR      22  18  85 CALM      30.42R
BUENA VISTA    FAIR      38  10  31 NW8G18    30.31R
COPPER MTN     CLOUDY    23  12  63 MISG      30.41R
BERTHOUD PASS  MOCLDY    12   1  62 NW40G52   30.28F WCI -12
COTTONWOOD PAS FAIR      36  14  41 NW8G22    30.31S
GUNNISON       FAIR      19  13  77 CALM      30.46R
KREMMLING      FAIR      32  23  69 E9        30.38S WCI  24
LEADVILLE      FAIR      21  10  62 CALM      30.38R
MONARCH PASS   FAIR      18   7  62 W48       30.45R WCI  -6
SALIDA         FAIR      39  10  30 NW9       30.38R
SUNLIGHT       FAIR      19  12  73 SW10G21   30.46R WCI   8
WILKERSON PASS FAIR      27  12  54 NW9G20    30.36R WCI  17
$$

COZ069>075-221200-
...SAN LUIS VALLEY/SANGRE DE CRISTO MOUNTAINS...

CITY           SKY/WX    TMP DP  RH WIND       PRES   REMARKS
ALAMOSA        FAIR      19  10  68 W6        30.37R WCI  11
DEL NORTE      FAIR      20   5  52 W6        30.38S WCI  12
LA VETA PASS   FAIR      30   5  34 S31G39    30.42R WCI  15
SAGUACHE       FAIR      28  12  50 NW7       30.39R WCI  21
$$

COZ035-036-038>040-221200-
...NORTHERN COLORADO FRONT RANGE...

CITY           SKY/WX    TMP DP  RH WIND       PRES   REMARKS
DENVER INTL AP FAIR      38  14  37 S10       30.13S
DMNS CITY PARK   N/A     35  16  45 S7        30.15R WCI  30
AURORA         PTCLDY    38  14  37 S9        30.15S
FRONT RANGE AP FAIR      36  18  48 S9        30.14S
ERIE MUNI ARPT FAIR      33  20  58 N5        30.18R WCI  29
BOULDER MUN AP FAIR      52  18  25 NW5G12    30.11S
CENTENNIAL     FAIR      34  14  43 SE14      30.15S WCI  25
BROOMFIELD     FAIR      46  18  31 SW6       30.13S
FORT COLLINS   FAIR      31  25  78 N3        30.13S
LONGMONT       FAIR      30  22  72 W6        30.14S WCI  24
$$

COZ041-046-047-076>085-087-088-221200-
...PIKES PEAK/PALMER DIVIDE AND SOUTHERN FOOTHILLS...

CITY           SKY/WX    TMP DP  RH WIND       PRES   REMARKS
COLO. SPRINGS  FAIR      31  12  45 NE8       30.22S WCI  23
A. F. ACADEMY  FAIR      27  10  47 NW8       30.21S WCI  19
SCHRIEVER AFB  FAIR      32   9  37 CALM      30.23R
CHEYENNE MTN   FAIR      38   8  28 CALM      30.17R
ELLICOTT         N/A      1   1 100 S5        30.21R WCI  -9
FALCON         FAIR      29   9  42 CALM      30.23R
FORT CARSON    FAIR      28  12  51 N6        30.21R WCI  22
LIMON          FAIR      21  15  78 CALM      30.20R
MONUMENT HILL  FAIR      30  14  51 S9        30.22R WCI  22
CANON CITY     FAIR      41  16  36 W13       30.20R
WALSENBURG     FAIR      45   9  23 W13G21    30.23R
TRINIDAD       FAIR      29  23  78 NW9       30.25R WCI  20
$$

COZ042>045-048>051-090-091-221200-
...NORTHEAST COLORADO...

CITY           SKY/WX    TMP DP  RH WIND       PRES   REMARKS
GREELEY ARPT   FAIR      26  20  77 SE3       30.14R
AKRON          FAIR      35  16  45 S10       30.13F WCI  27
BURLINGTON     FAIR      30  21  69 SW12      30.19R WCI  20
WRAY           FAIR      30  23  74 W6        30.16S WCI  24
YUMA           NOT AVBL
STERLING       NOT AVBL
HOLYOKE        FAIR      34  27  75 W6        30.14S WCI  29
FORT MORGAN    FAIR      32  14  46 CALM      30.13F
$$

COZ086-089-092>099-221200-
...SOUTHEAST COLORADO...

CITY           SKY/WX    TMP DP  RH WIND       PRES   REMARKS
PUEBLO         FAIR      31  19  61 E5        30.21S WCI  26
LA JUNTA       FAIR      29  18  63 W3        30.23R
LAMAR          FAIR      24  16  71 SW6       30.22R WCI  17
SPRINGFIELD      N/A     24  19  81 CALM      30.25R
$$




USA.gov is the U.S. government's official web portal to all federal, state and local government web resources and services.